Starlink 5020

operational
NORAD ID: 55458 Int'l Des: 2023-015 Owner: SPXS Country: US Constellation: starlink
LEOCIRCULAR

About Starlink 5020

Description loading...

Live Position

Loading 3D Globe...

Upcoming Passes

Altitude History

Altitude vs Time

uPlot chart will show altitude changes over time

Two-Line Element Set

1 55458U 23015K 25302.73182917 .00000310 00000-0 38028-4 0 9997
2 55458 43.0033 317.6543 0001111 267.3384 92.7331 15.02536577151056
Epoch: Oct 29, 2025 • Age: 36 hours

Current Status

Altitude 570.9 km
Velocity 7.58 km/s
Sub-Earth Point -41.25°S, 111.44°E
Launch Date Feb 2, 2023
Age 2.7 years
Type internet

Technical Details

Classification Payload
Mass 305.00 kg
Dry Mass 290.00 kg
Total Mass 305.00 kg
Length 0.20 m
Diameter 2.80 m
Span 9.00 m
Shape Box + pan
Manufacturer SPXS
Bus Type Starlink
Phase Status In Orbit
Owner/State SPXS/US

Large Constellations

Loading constellations...